Cloud_Cover
68 68 64 68 80 88 88 68 68 68 64 64 56 56 56 48 44 32 20 20 12 20 32 36 36 36 44 36 24 12 0 8 0 0 0 0 0 0 0 0 32 68 68 68 68 76 88 88 88 88 88 88 88 88 88 80 80 80 92 92 68 44 32 48 56 64 48 80 76 68 88 76 64 56 48 48 48 48 20 20 12 8 12 12 12 20
68 68 64 68 76 80 68 56 48 48 48 56 56 56 56 56 48 44 36 32 24 32 56 48 48 44 44 36 24 20 8 8 0 0 0 0 0 0 0 0 0 0 0 0 0 20 68 48 56 76 88 88 88 88 88 88 76 64 80 88 68 56 80 76 56 44 48 56 56 56 64 44 32 24 8 8 12 20 12 12 12 12 12 44 44 44
68 68 64 64 68 68 68 64 48 44 44 48 48 56 64 56 56 48 64 64 56 56 68 68 56 48 44 32 24 12 8 8 8 8 0 0 0 0 0 0 0 0 0 0 0 0 0 0 0 20 64 80 88 88 88 80 44 24 68 76 76 76 56 36 32 32 32 24 20 24 32 12 8 8 12 12 12 20 36 32 36 44 44 76 88 80
76 68 68 68 56 56 68 68 64 64 56 56 64 68 68 68 68 68 76 92 88 80 76 68 64 56 48 32 24 12 8 12 12 8 0 0 0 0 0 0 0 0 0 0 0 0 0 0 0 0 0 68 88 88 88 80 48 32 64 76 68 48 24 24 20 20 12 20 12 8 8 12 12 20 24 32 32 36 76 64 68 76 76 76 80 92
76 76 68 76 68 68 68 76 76 68 64 68 68 68 68 76 76 80 88 92 92 92 88 76 64 56 44 36 24 20 12 20 12 8 0 0 0 0 0 0 0 0 0 0 0 0 0 0 0 0 0 68 88 88 80 68 56 56 64 56 56 44 12 20 20 24 20 12 12 12 8 8 24 48 56 48 44 36 36 48 56 56 64 76 80 80
68 68 68 76 80 80 80 80 80 76 76 68 68 64 76 68 80 92 92 92 92 92 92 80 68 56 44 32 20 12 12 20 12 8 0 0 0 0 0 0 0 0 0 0 0 0 0 0 0 0 0 68 88 88 88 80 80 80 76 56 56 56 32 36 44 44 36 20 12 12 8 8 32 48 56 32 44 56 56 64 68 80 92 76 64 68
68 76 76 80 80 80 88 76 76 76 68 68 64 68 76 76 88 92 92 92 92 92 92 80 76 56 44 24 12 12 12 8 8 0 0 0 0 0 0 0 0 0 0 0 0 0 0 0 0 0 0 36 68 80 44 68 76 68 32 68 76 68 48 68 80 80 68 56 48 44 20 12 8 8 12 8 24 44 56 56 64 68 88 68 64 68
76 76 76 80 80 80 88 76 68 64 64 64 76 88 80 88 92 92 92 92 92 92 88 76 64 48 32 20 12 8 12 8 0 0 0 0 0 0 0 0 0 0 0 0 0 0 0 0 0 0 0 0 24 32 0 24 32 36 44 68 80 80 68 76 80 88 88 88 88 80 64 56 32 12 8 20 36 44 20 36 36 36 64 80 68 56
76 76 68 80 88 88 76 68 64 64 68 68 80 92 92 92 92 92 92 92 88 88 76 76 64 36 20 8 0 0 8 0 0 0 0 0 0 0 0 0 0 0 0 0 0 0 0 0 0 0 0 0 0 0 0 0 0 8 36 36 64 76 44 76 88 88 88 88 88 88 88 88 76 56 56 48 68 68 20 36 36 36 76 76 68 68
68 76 80 76 88 92 88 88 76 68 76 80 88 92 92 92 92 88 88 88 80 68 48 56 48 36 20 8 0 0 0 0 0 0 0 0 0 0 0 0 0 0 0 0 0 0 0 0 0 0 0 0 0 0 0 0 0 0 0 0 20 24 8 24 32 44 88 88 88 88 88 88 88 88 76 48 48 48 36 48 44 48 76 80 88 92
64 68 80 88 88 88 92 92 88 76 88 92 88 88 92 92 76 64 76 80 68 48 36 32 32 24 12 8 0 0 0 0 0 0 0 0 0 0 0 0 0 0 0 0 0 0 0 0 0 0 0 0 0 0 0 0 0 0 0 0 0 0 0 0 0 8 36 76 88 88 88 88 68 64 80 68 48 44 76 80 68 64 80 64 76 92
80 88 88 92 92 92 92 80 80 88 92 92 92 88 68 56 44 32 44 64 56 36 24 20 20 12 8 0 0 0 0 0 0 0 0 0 0 0 0 0 0 0 0 0 0 0 0 0 0 0 0 0 0 0 0 0 0 0 0 0 0 0 0 0 0 12 64 80 88 80 48 56 68 76 88 64 48 48 68 76 76 80 88 80 68 56
92 92 92 92 92 92 92 88 80 80 92 80 80 76 48 36 24 24 24 32 32 24 12 12 12 8 0 0 0 0 0 0 0 0 0 0 0 0 0 0 0 0 0 0 0 0 0 0 0 0 0 0 0 0 0 0 0 0 0 0 0 0 0 48 64 68 88 88 76 56 32 44 48 44 36 44 44 56 80 76 80 88 88 88 68 48
92 92 92 92 80 76 76 88 88 92 92 76 64 56 44 32 24 20 20 20 20 12 20 32 20 8 0 0 0 0 0 0 0 0 0 0 0 0 0 0 0 0 0 0 0 0 0 0 0 0 0 0 0 0 0 0 0 0 0 0 0 12 68 80 88 88 88 88 76 48 24 24 24 24 24 36 44 44 56 56 64 68 88 68 76 80
92 92 92 80 76 76 88 88 92 92 92 68 48 36 24 20 20 12 12 12 12 12 36 36 36 24 0 0 0 0 0 0 0 0 0 0 0 0 0 0 0 0 0 0 0 0 0 0 0 0 0 0 0 0 0 0 0 0 0 0 0 20 76 80 88 88 88 88 88 68 20 20 32 44 44 44 56 76 80 80 80 88 88 88 88 88
88 88 88 88 76 68 88 88 88 88 88 48 24 20 12 12 8 8 20 36 36 36 76 76 76 56 0 0 0 0 0 24 24 8 0 0 0 0 0 0 0 0 0 0 0 0 0 0 0 0 0 0 0 0 0 0 0 0 0 0 0 12 56 68 80 88 88 88 76 68 80 44 36 48 56 56 64 68 68 80 88 88 88 88 88 88
92 92 88 92 88 88 88 88 80 76 64 24 20 20 0 0 36 76 76 76 76 76 80 80 76 76 68 12 0 0 0 56 48 12 8 0 0 0 0 0 0 0 0 0 0 0 0 0 0 0 0 0 0 0 0 0 0 0 0 0 0 0 20 68 88 88 88 88 88 88 88 80 80 68 56 64 64 64 64 80 88 88 88 88 88 88
92 88 88 88 88 80 56 48 36 24 12 8 8 0 0 0 44 80 80 80 80 80 80 80 80 80 76 36 8 0 0 12 48 80 80 24 8 0 0 0 0 0 0 0 0 0 0 0 0 0 0 0 0 0 0 0 0 0 0 0 0 0 0 0 44 88 88 88 88 88 88 88 88 80 56 48 68 88 88 88 88 88 88 88 88 88
88 88 88 80 80 68 20 32 20 0 8 36 56 64 44 68 80 80 80 80 80 80 80 80 80 80 80 20 0 0 0 64 80 80 80 48 20 0 0 0 0 0 0 0 0 0 0 0 0 0 0 0 0 0 0 0 0 0 0 0 0 0 0 0 0 12 56 80 88 76 36 76 64 44 44 44 56 68 88 88 88 88 88 88 88 88
80 80 80 80 80 80 80 80 64 36 8 56 76 76 80 80 80 80 80 80 80 80 80 80 80 80 80 56 24 0 0 64 80 80 80 56 24 0 0 0 0 0 0 0 0 0 0 0 0 0 0 0 0 0 0 0 0 0 0 0 0 0 0 0 44 88 88 88 88 88 88 68 56 56 48 44 56 76 88 76 80 88 88 88 88 88
80 80 76 80 80 80 80 80 80 56 0 0 20 48 80 80 80 80 80 92 92 88 80 80 80 80 80 80 36 0 0 64 80 80 80 76 36 0 0 0 0 0 0 0 0 0 0 0 0 0 0 0 0 0 0 0 0 0 0 0 0 0 0 0 0 24 88 64 68 88 88 88 88 80 64 68 64 64 88 88 88 88 88 88 88 88
44 80 80 80 80 80 76 76 36 8 8 20 56 80 80 80 80 80 80 80 80 80 80 80 80 80 76 76 36 0 8 64 80 80 80 68 32 0 0 0 0 0 0 0 0 0 0 0 0 0 0 0 0 0 0 0 0 0 0 0 0 0 0 0 32 64 80 88 80 80 80 88 88 88 88 88 88 88 80 88 88 88 88 88 88 88
48 80 80 80 80 64 20 20 12 0 8 68 88 88 88 88 80 80 80 80 80 80 80 80 80 68 36 20 20 24 44 56 64 68 80 48 20 0 0 0 0 0 0 0 0 0 0 0 0 0 0 0 0 0 0 0 0 0 0 0 0 0 0 24 20 8 24 68 64 48 88 88 88 88 88 88 88 88 88 88 88 88 88 88 88 88
80 80 80 80 76 56 24 20 20 24 56 80 88 88 88 88 80 76 56 76 80 80 80 80 68 56 68 36 44 48 0 0 0 20 80 32 8 0 0 8 8 8 0 0 0 0 0 0 0 0 0 0 0 0 0 0 0 0 0 0 0 0 0 0 0 8 36 68 80 80 76 80 88 88 76 88 88 88 88 88 88 88 88 88 80 68
76 80 64 56 32 36 88 88 88 88 88 88 88 88 88 88 80 76 56 76 80 80 80 80 80 68 32 12 0 0 0 0 8 24 80 76 44 12 0 20 36 36 20 8 20 20 8 0 0 0 0 0 0 0 0 0 0 0 0 0 0 0 0 0 0 0 0 24 44 44 20 68 80 64 36 76 88 88 88 80 76 80 88 88 88 80
32 68 88 56 48 56 88 88 88 88 88 68 68 76 80 80 80 68 24 56 76 80 76 76 76 76 76 44 20 0 0 12 32 56 80 76 68 44 0 48 76 76 48 32 32 32 20 8 0 0 0 0 0 0 0 0 0 0 0 0 0 0 0 0 0 0 0 0 0 8 32 68 56 44 68 80 88 88 88 68 56 64 88 88 80 80
0 20 80 64 56 56 56 56 48 48 56 12 20 44 68 80 80 76 76 76 76 76 76 76 76 68 68 76 44 12 20 56 68 68 80 80 64 32 12 48 76 80 80 48 44 36 12 8 0 0 0 0 0 0 0 0 0 0 0 0 0 0 0 0 0 0 0 0 0 0 0 32 56 68 88 88 88 88 88 88 88 88 88 88 88 88
0 12 48 12 0 0 0 0 0 0 0 0 0 8 44 76 80 76 76 76 76 76 76 68 68 68 68 68 48 36 56 64 44 36 68 76 80 64 24 44 68 80 80 80 76 68 44 8 0 0 0 0 0 0 0 0 0 0 0 0 0 0 0 0 0 0 0 0 0 0 0 0 44 76 56 76 80 88 88 88 88 88 88 88 88 88
12 24 0 8 0 0 0 0 0 0 0 0 0 0 8 64 80 76 76 76 76 76 76 68 68 76 76 76 76 64 24 24 12 12 56 76 80 68 44 76 80 80 80 80 76 64 48 12 0 0 0 0 0 0 0 0 0 0 0 0 0 0 0 0 0 0 0 0 0 0 0 0 24 36 0 64 80 80 88 88 88 88 88 88 88 88
56 64 12 8 0 0 0 0 0 0 0 0 0 0 20 44 56 64 76 76 76 76 76 76 76 76 76 76 76 56 20 0 0 8 44 68 80 76 64 76 80 80 80 80 76 56 8 0 0 0 0 0 0 0 0 0 0 0 0 0 0 0 0 0 0 0 0 0 0 0 0 0 0 0 0 32 44 44 48 76 88 88 88 88 88 88
80 64 12 0 0 0 0 0 0 0 0 0 0 0 12 8 12 32 48 64 76 76 76 76 76 76 76 76 68 68 56 12 0 8 44 68 80 76 56 76 80 80 80 80 76 64 32 8 0 0 0 0 0 0 0 0 0 0 0 0 0 0 0 0 0 0 0 0 0 0 0 0 0 0 0 0 0 0 0 64 80 88 88 88 88 88
36 24 0 0 0 0 0 0 0 0 0 0 0 0 0 0 8 12 24 48 68 76 76 76 76 76 76 76 68 64 36 20 20 36 88 80 80 80 80 80 80 80 80 80 80 76 68 44 24 8 0 0 0 0 0 0 0 0 0 0 0 0 0 0 0 0 0 0 0 0 0 0 0 0 0 0 0 0 0 24 64 88 88 88 88 80
0 0 0 0 0 0 0 0 0 0 0 0 0 0 12 36 44 44 64 68 76 80 80 76 76 76 76 76 76 64 44 48 36 44 88 80 80 80 80 80 80 80 80 80 80 80 76 76 64 36 0 0 0 0 0 0 0 0 0 0 0 0 0 0 0 0 0 0 0 0 0 0 0 0 0 0 0 0 0 0 12 44 88 88 80 80
0 0 0 0 0 0 0 0 0 0 0 8 24 48 56 76 64 48 80 80 80 80 80 76 76 76 76 76 76 76 76 36 32 56 88 80 80 80 80 76 76 76 76 80 80 80 76 80 80 68 48 12 0 0 0 0 0 0 0 0 0 0 0 0 0 0 0 0 0 0 0 0 0 0 0 0 0 0 0 0 0 20 88 88 88 80
0 0 0 0 0 0 0 0 12 32 48 56 68 80 80 80 56 44 80 80 80 80 80 80 80 76 76 76 76 64 24 20 44 80 92 88 80 80 80 76 76 76 76 76 76 76 76 80 80 80 76 64 24 0 0 0 0 0 0 0 0 0 0 0 0 0 0 0 0 0 0 0 0 0 0 0 0 0 0 0 0 12 64 80 88 88
0 0 0 0 24 48 48 48 56 68 76 64 68 80 80 80 76 68 80 80 80 80 80 80 80 80 80 80 76 76 56 64 76 88 92 80 80 80 76 68 76 80 80 76 76 76 76 76 80 80 76 76 64 32 0 0 0 0 0 0 0 0 0 0 0 0 0 0 0 0 0 8 8 0 0 8 0 0 8 0 0 0 20 32 64 88
12 36 56 56 64 76 76 76 76 76 76 68 76 80 80 76 76 76 80 80 80 80 80 80 80 80 80 80 80 80 80 80 76 76 88 80 80 76 80 76 80 80 76 76 76 76 76 76 76 76 76 76 76 56 0 0 0 0 0 0 0 0 0 8 8 12 12 12 8 8 12 20 24 20 12 24 20 20 24 24 20 12 20 12 24 36
64 68 76 76 76 76 76 76 76 76 76 76 68 68 80 80 80 80 80 80 80 80 80 80 80 80 80 80 80 80 68 48 32 36 76 80 80 76 80 80 80 80 80 80 80 80 80 76 76 76 76 76 76 68 44 12 0 0 0 0 8 12 12 12 12 20 32 24 20 20 24 36 36 36 44 44 36 44 48 44 44 44 44 36 32 32
68 68 68 76 76 76 76 76 76 76 76 76 76 76 80 80 80 80 80 80 80 80 80 80 80 76 56 48 56 64 68 44 24 32 68 80 80 76 68 76 76 80 88 88 88 88 76 80 80 80 80 76 76 68 48 64 68 64 48 32 24 24 20 20 20 24 44 36 32 24 20 36 48 48 48 48 48 48 56 48 48 56 56 44 36 32
68 68 68 76 76 76 76 76 76 76 68 48 64 76 80 80 80 80 80 80 80 80 80 80 80 80 76 76 76 80 80 48 36 32 36 36 56 76 76 80 76 76 80 80 88 88 88 80 80 80 80 80 80 64 20 64 80 80 80 56 44 36 32 32 32 24 32 32 32 32 24 44 56 64 64 64 56 56 68 56 48 56 64 48 48 48
68 68 68 76 76 76 76 76 76 76 76 76 76 76 76 76 76 76 80 80 80 80 80 80 80 76 64 76 80 80 80 48 36 32 32 24 48 76 80 76 80 88 88 80 80 80 88 88 80 80 80 80 80 76 68 76 80 80 80 80 56 36 36 36 36 32 32 36 36 44 36 44 56 68 64 64 64 68 68 56 48 48 48 64 76 80
68 68 68 76 76 76 76 76 76 76 76 76 76 76 76 76 76 76 76 76 76 76 76 76 76 76 76 76 80 68 20 32 32 32 24 32 48 76 80 76 80 88 80 80 80 80 88 88 80 76 76 80 80 80 76 32 48 80 88 80 80 76 48 44 36 32 36 36 44 48 48 56 64 68 56 64 64 56 56 56 56 64 80 80 80 80
68 68 76 76 76 80 80 80 80 76 76 76 76 76 76 76 76 76 76 76 76 76 76 76 76 76 76 76 44 12 0 0 8 12 24 32 36 44 64 80 88 88 92 80 76 68 48 76 80 80 80 80 80 80 80 56 44 36 56 80 88 76 56 44 36 36 44 44 44 48 56 48 56 64 64 80 88 80 68 64 76 88 68 68 76 80
68 68 68 76 76 80 80 80 76 76 76 76 76 76 76 76 76 76 80 76 76 76 76 76 76 76 76 68 36 0 0 0 0 0 20 24 36 48 68 80 88 88 80 80 80 80 80 80 80 80 80 80 80 80 80 76 64 56 64 80 88 88 88 36 32 36 36 44 36 24 20 32 44 48 68 76 76 76 68 68 68 68 80 80 80 80
68 68 64 68 76 76 76 76 76 76 76 76 76 76 76 76 76 76 80 76 76 76 76 76 76 76 76 48 24 12 12 0 0 0 0 12 44 76 80 88 92 88 88 88 88 88 80 80 64 36 36 76 80 80 80 76 76 68 68 64 76 88 88 48 64 76 68 36 24 20 20 32 64 88 88 80 68 64 64 76 80 80 80 88 80 76
76 76 76 76 76 76 76 76 76 76 76 76 76 76 76 76 76 76 80 76 76 76 76 76 76 76 68 76 36 12 32 20 8 0 0 0 12 32 76 88 92 92 88 88 88 88 88 88 88 80 80 80 80 76 80 80 80 76 48 56 68 80 88 80 68 68 88 56 32 20 20 36 68 88 92 88 80 76 76 88 92 88 88 80 80 80
76 76 76 76 76 76 76 76 76 76 76 76 76 76 76 76 80 80 80 80 80 80 76 80 80 76 76 76 64 64 76 68 36 8 8 8 20 44 76 88 92 92 92 92 92 88 88 88 88 88 80 80 64 56 76 76 76 76 48 48 64 76 80 68 64 64 88 88 64 44 48 56 76 92 88 92 92 92 92 92 92 92 92 92 88 88
68 76 76 76 76 76 76 76 76 76 76 76 76 76 76 76 76 76 80 80 80 80 80 80 76 76 76 76 76 76 76 64 44 32 32 20 24 44 56 76 80 88 92 92 92 88 88 88 88 88 88 88 80 68 44 36 44 48 48 56 68 80 80 88 80 76 88 88 76 68 76 88 92 92 92 92 92 92 92 92 92 92 92 92 92 92
76 76 76 76 76 76 76 76 76 76 76 76 76 76 76 76 76 76 80 80 80 80 80 76 76 76 76 76 76 76 76 76 64 56 76 48 36 36 24 44 64 80 88 88 80 76 76 80 88 88 88 88 80 68 48 32 24 32 32 64 76 80 68 80 88 92 92 92 92 88 88 92 92 92 92 92 92 92 92 92 92 92 92 92 92 92
76 76 76 76 76 76 76 76 76 76 76 76 76 76 76 76 76 76 80 80 80 80 80 76 76 76 76 76 76 76 76 76 76 76 68 76 80 76 56 80 88 88 88 64 44 32 36 56 76 80 80 80 68 48 44 24 32 36 44 68 80 88 88 80 80 88 92 92 92 92 92 92 92 92 92 92 92 92 88 92 92 92 92 92 92 92
76 76 76 76 76 76 76 76 76 76 76 76 76 76 76 76 76 76 76 80 80 80 80 80 80 76 76 68 76 76 80 76 76 68 36 68 80 88 88 88 88 88 88 48 32 32 56 64 76 80 80 88 88 88 80 48 48 68 76 56 68 80 88 88 80 80 88 92 92 92 92 92 92 92 92 92 92 92 92 92 92 92 92 92 92 92